• In Hungary
  • List of Countries
  • For 7 days
  • Water Temperature
  • Satellite Maps
  • Weather Map
  • News
  • Weather Widgets
  • user-avatar
    Login

    Hourly Weather Zhezqazghan

    Today, 16 November, Friday

    Time Temperature Precipitation Wind Pressure Humidity
    00:00 -3°C° 0 mm 4 mps 758 mmHg 37%
    01:00 -3°C° 0 mm 4 mps 758 mmHg 37%
    02:00 -3°C° 0 mm 4 mps 758 mmHg 37%
    03:00 -3°C° 0 mm 4 mps 758 mmHg 36%
    04:00 -3°C° 0 mm 4 mps 758 mmHg 36%
    05:00 -3°C° 0 mm 4 mps 759 mmHg 35%
    06:00 -3°C° 0 mm 4 mps 759 mmHg 35%
    07:00 -4°C° 0 mm 5 mps 759 mmHg 34%
    08:00 -1°C° 0 mm 5 mps 759 mmHg 31%
    09:00 +1°C° 0 mm 5 mps 759 mmHg 27%
    10:00 +2°C° 0 mm 5 mps 759 mmHg 24%
    11:00 +3°C° 0 mm 5 mps 759 mmHg 24%
    12:00 +5°C° 0 mm 5 mps 758 mmHg 24%
    13:00 +6°C° 0 mm 5 mps 758 mmHg 24%
    14:00 +3°C° 0 mm 5 mps 758 mmHg 27%
    15:00 +2°C° 0 mm 5 mps 757 mmHg 30%
    16:00 +1°C° 0 mm 5 mps 757 mmHg 34%
    17:00 0°C° 0 mm 5 mps 757 mmHg 35%
    18:00 0°C° 0 mm 5 mps 757 mmHg 36%
    19:00 -1°C° 0 mm 4 mps 757 mmHg 37%
    20:00 -1°C° 0 mm 4 mps 756 mmHg 37%
    21:00 -1°C° 0 mm 4 mps 756 mmHg 37%
    22:00 -1°C° 0 mm 4 mps 756 mmHg 37%
    23:00 -1°C° 0 mm 3 mps 755 mmHg 37%

    Tomorrow, 17 November, Saturday

    Time Temperature Precipitation Wind Pressure Humidity
    00:00 -1°C° 0 mm 3 mps 755 mmHg 38%
    01:00 -1°C° 0 mm 3 mps 755 mmHg 38%
    02:00 -1°C° 0 mm 3 mps 754 mmHg 39%
    03:00 -1°C° 0 mm 3 mps 754 mmHg 40%
    04:00 -1°C° 0 mm 3 mps 753 mmHg 40%
    05:00 -1°C° 0 mm 3 mps 753 mmHg 40%
    06:00 -1°C° 0 mm 3 mps 753 mmHg 40%
    07:00 -1°C° 0 mm 3 mps 753 mmHg 40%
    08:00 0°C° 0 mm 3 mps 753 mmHg 37%
    09:00 +2°C° 0 mm 3 mps 753 mmHg 34%
    10:00 +3°C° 0 mm 3 mps 752 mmHg 30%
    11:00 +4°C° 0 mm 3 mps 752 mmHg 30%
    12:00 +5°C° 0 mm 3 mps 752 mmHg 29%
    13:00 +5°C° 0 mm 3 mps 751 mmHg 28%
    14:00 +4°C° 0 mm 3 mps 751 mmHg 32%
    15:00 +3°C° 0 mm 3 mps 751 mmHg 36%
    16:00 +2°C° 0 mm 3 mps 750 mmHg 40%
    17:00 0°C° 0 mm 4 mps 751 mmHg 42%
    18:00 0°C° 0 mm 4 mps 751 mmHg 43%
    19:00 -1°C° 0 mm 4 mps 751 mmHg 45%
    20:00 0°C° 0 mm 3 mps 751 mmHg 45%
    21:00 -1°C° 0 mm 3 mps 751 mmHg 45%
    22:00 -1°C° 0 mm 3 mps 751 mmHg 45%
    23:00 -1°C° 0 mm 3 mps 751 mmHg 45%

    Day after tomorrow, 18 November, Sunday

    Time Temperature Precipitation Wind Pressure Humidity
    00:00 -1°C° 0 mm 3 mps 751 mmHg 45%
    01:00 -1°C° 0 mm 2 mps 751 mmHg 45%
    02:00 -1°C° 0 mm 2 mps 752 mmHg 45%
    03:00 -1°C° 0 mm 2 mps 752 mmHg 45%
    04:00 -2°C° 0 mm 2 mps 752 mmHg 45%
    05:00 -2°C° 0 mm 2 mps 752 mmHg 45%
    06:00 -1°C° 0 mm 2 mps 752 mmHg 44%
    07:00 -1°C° 0 mm 2 mps 752 mmHg 44%
    08:00 +1°C° 0 mm 2 mps 753 mmHg 39%
    09:00 +3°C° 0 mm 2 mps 753 mmHg 34%
    10:00 +6°C° 0 mm 1 mps 753 mmHg 29%
    11:00 +6°C° 0 mm 1 mps 753 mmHg 28%
    12:00 +7°C° 0 mm 1 mps 753 mmHg 26%
    13:00 +8°C° 0 mm 1 mps 753 mmHg 25%
    14:00 +6°C° 0 mm 2 mps 753 mmHg 29%
    15:00 +5°C° 0 mm 2 mps 753 mmHg 33%
    16:00 +3°C° 0 mm 2 mps 753 mmHg 38%
    17:00 +3°C° 0 mm 2 mps 753 mmHg 39%
    18:00 +2°C° 0 mm 2 mps 753 mmHg 40%
    19:00 +2°C° 0 mm 2 mps 753 mmHg 42%
    20:00 +2°C° 0 mm 2 mps 753 mmHg 41%
    21:00 +2°C° 0 mm 2 mps 752 mmHg 41%
    22:00 +1°C° 0 mm 2 mps 752 mmHg 41%
    23:00 +1°C° 0 mm 2 mps 752 mmHg 40%

    19 November, Monday

    Time Temperature Precipitation Wind Pressure Humidity
    00:00 +1°C° 0 mm 2 mps 752 mmHg 39%
    01:00 +1°C° 0 mm 2 mps 752 mmHg 38%
    02:00 +1°C° 0 mm 2 mps 752 mmHg 38%
    03:00 +2°C° 0 mm 1 mps 752 mmHg 37%
    04:00 +2°C° 0 mm 1 mps 752 mmHg 36%
    05:00 +2°C° 0 mm 1 mps 752 mmHg 36%
    06:00 +2°C° 0 mm 1 mps 752 mmHg 36%
    07:00 +2°C° 0 mm 1 mps 752 mmHg 35%
    08:00 +4°C° 0 mm 1 mps 752 mmHg 31%
    09:00 +6°C° 0 mm 1 mps 753 mmHg 26%
    10:00 +8°C° 0 mm 1 mps 753 mmHg 22%
    11:00 +8°C° 0 mm 1 mps 752 mmHg 21%
    12:00 +9°C° 0 mm 1 mps 752 mmHg 20%
    13:00 +9°C° 0 mm 1 mps 752 mmHg 19%
    14:00 +8°C° 0 mm 1 mps 752 mmHg 23%
    15:00 +7°C° 0 mm 1 mps 752 mmHg 26%
    16:00 +6°C° 0 mm 1 mps 751 mmHg 30%
    17:00 +6°C° 0 mm 1 mps 751 mmHg 29%
    18:00 +6°C° 0 mm 1 mps 751 mmHg 29%
    19:00 +6°C° 0 mm 1 mps 751 mmHg 28%
    20:00 +6°C° 0 mm 1 mps 751 mmHg 28%
    21:00 +6°C° 0 mm 1 mps 750 mmHg 28%
    22:00 +6°C° 0 mm 1 mps 750 mmHg 28%
    23:00 +6°C° 0.1 mm 1 mps 750 mmHg 30%

    20 November, Tuesday

    Time Temperature Precipitation Wind Pressure Humidity
    00:00 +6°C° 0.1 mm 1 mps 750 mmHg 33%
    01:00 +6°C° 0.1 mm 1 mps 749 mmHg 35%
    02:00 +5°C° 0.4 mm 1 mps 749 mmHg 40%
    03:00 +5°C° 0.4 mm 1 mps 749 mmHg 45%
    04:00 +4°C° 0.4 mm 2 mps 749 mmHg 50%
    05:00 +4°C° 0.6 mm 2 mps 749 mmHg 54%
    06:00 +4°C° 0.6 mm 1 mps 749 mmHg 59%
    07:00 +4°C° 0.6 mm 1 mps 749 mmHg 64%
    08:00 +4°C° 0.1 mm 1 mps 750 mmHg 62%
    09:00 +5°C° 0.1 mm 1 mps 750 mmHg 61%
    10:00 +5°C° 0.1 mm 1 mps 750 mmHg 59%
    11:00 +5°C° 0 mm 2 mps 750 mmHg 55%
    12:00 +5°C° 0 mm 2 mps 750 mmHg 52%
    13:00 +6°C° 0 mm 2 mps 750 mmHg 49%
    14:00 +5°C° 0 mm 2 mps 750 mmHg 51%
    15:00 +4°C° 0 mm 2 mps 751 mmHg 52%
    16:00 +3°C° 0 mm 2 mps 751 mmHg 54%
    17:00 +4°C° 0 mm 1 mps 751 mmHg 55%
    18:00 +3°C° 0 mm 1 mps 752 mmHg 56%
    19:00 +3°C° 0 mm 1 mps 752 mmHg 56%
    20:00 +3°C° 0 mm 1 mps 752 mmHg 57%
    21:00 +2°C° 0 mm 1 mps 753 mmHg 58%
    22:00 +2°C° 0 mm 1 mps 753 mmHg 59%
    23:00 +2°C° 0 mm 1 mps 753 mmHg 60%

    21 November, Wednesday

    Time Temperature Precipitation Wind Pressure Humidity
    00:00 +1°C° 0 mm 1 mps 753 mmHg 61%
    01:00 +1°C° 0 mm 1 mps 754 mmHg 62%
    02:00 +1°C° 0 mm 1 mps 754 mmHg 64%
    03:00 +1°C° 0 mm 1 mps 754 mmHg 65%
    04:00 0°C° 0 mm 1 mps 754 mmHg 66%
    05:00 0°C° 0 mm 1 mps 754 mmHg 66%
    06:00 0°C° 0 mm 1 mps 754 mmHg 65%
    07:00 +1°C° 0 mm 1 mps 754 mmHg 64%
    08:00 +2°C° 0 mm 1 mps 755 mmHg 58%
    09:00 +4°C° 0 mm 1 mps 755 mmHg 52%
    10:00 +5°C° 0 mm 1 mps 755 mmHg 46%
    11:00 +6°C° 0 mm 1 mps 755 mmHg 45%
    12:00 +6°C° 0 mm 1 mps 754 mmHg 43%
    13:00 +6°C° 0 mm 1 mps 754 mmHg 41%
    14:00 +5°C° 0 mm 1 mps 754 mmHg 46%
    15:00 +4°C° 0 mm 1 mps 753 mmHg 51%
    16:00 +3°C° 0 mm 1 mps 753 mmHg 55%
    17:00 +3°C° 0 mm 1 mps 753 mmHg 55%
    18:00 +3°C° 0 mm 1 mps 753 mmHg 55%
    19:00 +2°C° 0 mm 2 mps 753 mmHg 55%
    20:00 +2°C° 0 mm 2 mps 752 mmHg 54%
    21:00 +2°C° 0 mm 2 mps 752 mmHg 54%
    22:00 +2°C° 0 mm 2 mps 752 mmHg 54%
    23:00 +2°C° 0 mm 2 mps 751 mmHg 54%
    Show more